Rabat-Sale, Morocco

10:07 PM WEST on August 28, 2016 (GMT +0100)
Sale

Weather History for GMME - November, 2012

Change the Weather History Date:

Friday, November 16, 2012

  Actual Average Record
Temperature  
Mean Temperature 63 °F -  
Max Temperature 74 °F 65 °F 77 °F (1998)
Min Temperature 52 °F 48 °F 39 °F (2010)
Degree Days  
Heating Degree Days 2    
Growing Degree Days 13 (Base 50)    
Moisture  
Dew Point 55 °F    
Average Humidity 80    
Maximum Humidity 100    
Minimum Humidity 45    
Precipitation  
Precipitation 0.00 in 0.13 in - ()
Sea Level Pressure  
Sea Level Pressure 29.92 in    
Wind  
Wind Speed 3 mph ()    
Max Wind Speed 9 mph    
Max Gust Speed -    
Visibility 3.5 miles    
Events Thunderstorm    
Averages and records for this station are not official NWS values.
T = Trace of Precipitation, MM = Missing Value Source: Averaged Metar Reports

Daily Weather History Graph

Daily Weather History Graph

Search for Another Location

Airport or City:

Trip Planner

Search our weather history database for the weather conditions in past years. The results will help you decide how hot, cold, wet, or windy it might be!

Date:

Astronomy

Nov. 16, 2012 Rise Set
Actual Time 7:00 AM WET 5:22 PM WET
Civil Twilight 6:34 AM WET 5:49 PM WET
Nautical Twilight 6:03 AM WET 6:19 PM WET
Astronomical Twilight 5:34 AM WET 6:49 PM WET
Moon 9:40 AM WET (11/16) 8:08 PM WET (11/16)
Length of Visible Light 11h 15m
Length of Day
10h 21m
Waxing Crescent, 10% of the Moon is Illuminated
Nov 16
Waxing Crescent
Nov 20
First Quarter
Nov 28
Full
Dec 6
Last Quarter
Dec 13
New

Hourly Weather History & Observations

Time (WET) Temp. Dew Point Humidity Pressure Visibility Wind Dir Wind Speed Gust Speed Precip Events Conditions
12:00 AM 56 °F 54 °F 93% 29.99 in 3 mi Calm Calm - -   Scattered Clouds
12:00 AM 55.4 °F 55.4 °F 100% 29.98 in 3.1 mi Calm Calm - N/A   Partly Cloudy
12:30 AM 55.4 °F 55.4 °F 100% 29.98 in 3.1 mi SE 4.6 mph - N/A   Partly Cloudy
1:00 AM 55.4 °F 53.6 °F 94% 29.95 in - SE 4.6 mph - N/A   Unknown
1:30 AM 55.4 °F 53.6 °F 94% 29.95 in 3.1 mi SE 3.5 mph - N/A   Partly Cloudy
2:00 AM 55.4 °F 53.6 °F 94% 29.95 in 3.1 mi SE 5.8 mph - N/A   Partly Cloudy
2:30 AM 55.4 °F 53.6 °F 94% 29.95 in 3.1 mi SE 5.8 mph - N/A   Partly Cloudy
3:00 AM 56 °F 53 °F 87% 29.95 in 3 mi Calm Calm - -   Scattered Clouds
3:00 AM 55.4 °F 53.6 °F 94% 29.92 in 3.1 mi Calm Calm - N/A   Partly Cloudy
3:30 AM 55.4 °F 53.6 °F 94% 29.95 in 3.1 mi Calm Calm - N/A   Partly Cloudy
4:00 AM 55.4 °F 53.6 °F 94% 29.92 in 3.1 mi Calm Calm - N/A   Partly Cloudy
4:30 AM 55.4 °F 53.6 °F 94% 29.92 in 3.1 mi Calm Calm - N/A   Partly Cloudy
5:00 AM 55.4 °F 53.6 °F 94% 29.92 in 3.1 mi SE 3.5 mph - N/A   Partly Cloudy
5:30 AM 55.4 °F 53.6 °F 94% 29.92 in 3.1 mi SE 5.8 mph - N/A   Partly Cloudy
6:00 AM 54 °F 53 °F 94% 29.94 in 3 mi SE 5.8 mph - -   Scattered Clouds
6:00 AM 53.6 °F 53.6 °F 100% 29.92 in 3.1 mi SE 5.8 mph - N/A   Partly Cloudy
6:30 AM 53.6 °F 53.6 °F 100% 29.92 in 3.1 mi SE 5.8 mph - N/A   Partly Cloudy
7:00 AM 53.6 °F 53.6 °F 100% 29.95 in 3.1 mi SE 1.2 mph - N/A   Partly Cloudy
7:14 AM 53.6 °F 51.8 °F 94% 29.95 in 2.5 mi Calm Calm - N/A   Scattered Clouds
7:30 AM 53.6 °F 51.8 °F 94% 29.95 in 2.5 mi SE 1.2 mph - N/A   Scattered Clouds
8:00 AM 55.4 °F 55.4 °F 100% 29.95 in 2.5 mi Variable 2.3 mph - N/A   Scattered Clouds
8:17 AM 57.2 °F 55.4 °F 94% 29.95 in 3.1 mi Calm Calm - N/A   Scattered Clouds
8:30 AM 59.0 °F 55.4 °F 88% 29.95 in 3.1 mi Calm Calm - N/A   Scattered Clouds
9:00 AM 62 °F 56 °F 76% 29.96 in 3 mi Calm Calm - -   Scattered Clouds
9:00 AM 60.8 °F 57.2 °F 88% 29.95 in 3.1 mi Calm Calm - N/A   Scattered Clouds
9:30 AM 64.4 °F 55.4 °F 73% 29.95 in 3.1 mi South 4.6 mph - N/A   Scattered Clouds
10:00 AM 66.2 °F 55.4 °F 68% 29.95 in 3.1 mi South 5.8 mph - N/A   Scattered Clouds
10:30 AM 69.8 °F 55.4 °F 60% 29.95 in 3.1 mi South 3.5 mph - N/A   Scattered Clouds
11:00 AM 69.8 °F 53.6 °F 56% 29.95 in 3.7 mi South 5.8 mph - N/A   Scattered Clouds
11:30 AM 71.6 °F 55.4 °F 57% 29.92 in 3.7 mi SSW 6.9 mph - N/A   Scattered Clouds
12:00 PM 72 °F 55 °F 45% 29.92 in 5 mi SW 6.9 mph - -   Scattered Clouds
12:00 PM 71.6 °F 55.4 °F 57% 29.92 in 5.0 mi SW 6.9 mph - N/A   Scattered Clouds
12:30 PM 73.4 °F 55.4 °F 53% 29.89 in 5.0 mi SSW 8.1 mph - N/A   Scattered Clouds
1:00 PM 73.4 °F 55.4 °F 53% 29.89 in 5.0 mi SW 4.6 mph - N/A   Mostly Cloudy
1:30 PM 73.4 °F 51.8 °F 47% 29.89 in 5.0 mi SW 6.9 mph - N/A   Mostly Cloudy
2:00 PM 73.4 °F 53.6 °F 50% 29.86 in 5.0 mi SSW 6.9 mph - N/A   Mostly Cloudy
2:30 PM 73.4 °F 51.8 °F 47% 29.86 in 5.0 mi WSW 8.1 mph - N/A   Mostly Cloudy
3:00 PM 71 °F 58 °F 55% 29.87 in 5 mi WNW 5.8 mph - -   Scattered Clouds
3:00 PM 71.6 °F 59.0 °F 64% 29.86 in 5.0 mi WNW 5.8 mph - N/A   Mostly Cloudy
3:30 PM 69.8 °F 59.0 °F 68% 29.86 in 5.0 mi NW 2.3 mph - N/A   Mostly Cloudy
4:00 PM 68.0 °F 57.2 °F 68% 29.89 in 5.0 mi WNW 6.9 mph - N/A   Mostly Cloudy
4:30 PM 68.0 °F 59.0 °F 73% 29.89 in 5.0 mi Calm Calm - N/A   Mostly Cloudy
5:00 PM 64.4 °F 59.0 °F 83% 29.89 in 5.0 mi Calm Calm - N/A   Mostly Cloudy
6:00 PM 61 °F 57 °F 84% 29.89 in 3 mi Calm Calm - -   Partly Cloudy
6:00 PM 60.8 °F 57.2 °F 88% 29.89 in 3.1 mi Calm Calm - N/A   Mostly Cloudy
6:30 PM 62.6 °F 57.2 °F 82% 29.89 in 3.1 mi SE 3.5 mph - N/A   Mostly Cloudy
7:00 PM 60.8 °F 57.2 °F 88% 29.89 in 3.1 mi Calm Calm - N/A   Mostly Cloudy
7:30 PM 62.6 °F 57.2 °F 82% 29.89 in 3.1 mi Calm Calm - N/A   Mostly Cloudy
8:00 PM 60.8 °F 55.4 °F 82% 29.89 in 3.1 mi Calm Calm - N/A   Mostly Cloudy
8:14 PM 60.8 °F 57.2 °F 88% 29.89 in 3.1 mi Calm Calm - N/A Thunderstorm Thunderstorm
8:30 PM 62.6 °F 57.2 °F 82% 29.89 in 3.1 mi Calm Calm - N/A Thunderstorm Thunderstorm
9:00 PM 63 °F 57 °F 76% 29.90 in 3 mi Calm Calm - - Thunderstorm Thunderstorm
9:00 PM 62.6 °F 57.2 °F 82% 29.89 in 3.1 mi Calm Calm - N/A Thunderstorm Thunderstorm
9:30 PM 62.6 °F 57.2 °F 82% 29.89 in 3.1 mi South 8.1 mph - N/A Thunderstorm Thunderstorm
10:00 PM 64.4 °F 55.4 °F 73% 29.89 in 3.1 mi South 6.9 mph - N/A Thunderstorm Thunderstorm
10:30 PM 64.4 °F 55.4 °F 73% 29.89 in 3.1 mi SSW 9.2 mph - N/A Thunderstorm Thunderstorm
11:00 PM 62.6 °F 55.4 °F 77% 29.89 in 3.1 mi SSW 8.1 mph - N/A Thunderstorm Thunderstorm
11:30 PM 64.4 °F 53.6 °F 68% 29.89 in 3.1 mi SSW 9.2 mph - N/A Thunderstorm Thunderstorm